This is the latest recevied weather packets stored in our database for station/object K1WJY. If no packets are shown the sender has not sent any weather packets the latest 10 day(s).
| Time | Temp. | Humidity | Pressure | Rain* | Wind** | Luminosity | Snow |
|---|---|---|---|---|---|---|---|
| 1778012459 | 14.44° C | 83% | 1009.3 hPa | 0 mm | - | 406 W/m² | - |
| 1778012156 | 14.44° C | 82% | 1009.1 hPa | 0 mm | - | 426 W/m² | - |
| 1778011854 | 14.44° C | 82% | 1009.2 hPa | 0 mm | - | 388 W/m² | - |
| 1778011551 | 14.44° C | 81% | 1009 hPa | 0 mm | - | 403 W/m² | - |
| 1778011248 | 14.44° C | 82% | 1009.1 hPa | 0 mm | - | 420 W/m² | - |
| 1778010944 | 14.44° C | 82% | 1009.5 hPa | 0 mm | - | 409 W/m² | - |
| 1778010642 | 14.44° C | 82% | 1009.5 hPa | 0 mm | - | 403 W/m² | - |
| 1778010339 | 15° C | 81% | 1009.5 hPa | 0 mm | - | 400 W/m² | - |
| 1778010034 | 15.56° C | 80% | 1009.7 hPa | 0 mm | - | 422 W/m² | - |
| 1778009731 | 15.56° C | 80% | 1009.4 hPa | 0 mm | - | 489 W/m² | - |
| 1778009429 | 15° C | 81% | 1009.3 hPa | 0 mm | - | 422 W/m² | - |
| 1778009127 | 15.56° C | 80% | 1009.5 hPa | 0 mm | - | 474 W/m² | - |
| 1778008825 | 16.11° C | 78% | 1009.4 hPa | 0 mm | - | 501 W/m² | - |
| 1778008522 | 16.11° C | 77% | 1009.3 hPa | 0 mm | - | 507 W/m² | - |
| 1778008220 | 16.11° C | 77% | 1009.3 hPa | 0 mm | - | 546 W/m² | - |
| 1778007915 | 16.11° C | 78% | 1009.3 hPa | 0 mm | - | 530 W/m² | - |
| 1778007611 | 16.11° C | 77% | 1009.2 hPa | 0 mm | - | 533 W/m² | - |
| 1778007308 | 16.11° C | 77% | 1009.4 hPa | 0 mm | - | 544 W/m² | - |
| 1778007004 | 17.22° C | 75% | 1009.5 hPa | 0 mm | - | 558 W/m² | - |
| 1778006701 | 17.22° C | 74% | 1009.3 hPa | 0 mm | - | 564 W/m² | - |
| 1778006397 | 16.67° C | 76% | 1009.1 hPa | 0 mm | - | 583 W/m² | - |
| 1778006095 | 16.67° C | 76% | 1009.3 hPa | 0 mm | - | 588 W/m² | - |
| 1778005791 | 16.11° C | 77% | 1009.5 hPa | 0 mm | - | 583 W/m² | - |
| 1778005488 | 16.67° C | 76% | 1009.4 hPa | 0 mm | - | 607 W/m² | - |
| 1778005184 | 16.11° C | 77% | 1009.6 hPa | 0 mm | - | 610 W/m² | - |
* Rain latest hour (hover to see other rain measurements)
** Current wind speed in m/s (hover to see current wind gust speed)